Flag for U.S.A. Weather past 2 weeks in Pocatello, Idaho, U.S.A.

Now
53 °F

Sunny.


Feels Like: 48 °F
Forecast: 36 / 71 °F
Wind: 16 mph from Southwest

Location: Pocatello Regional Airport


UV Index: 5 (Moderate)

Visibility: 10 mi


Pressure: 29.93 "Hg

Humidity: 22%

Dew point: 15 °F

Location of PocatelloLocation

Historic Weather in Pocatello

°F

Pocatello temperature yesterday

Maximum temperature yesterday: 68 °F (at 4:53 PM)
Minimum temperature yesterday: 29 °F (at 6:53 AM)
Average temperature yesterday: 53 °F

Past Weeks' High & Low Weather Summary

 TemperatureHumidityPressure
High71 °F (Apr 8, 4:53 PM)92% (Apr 5, 5:53 AM)30.40 "Hg (Apr 5, 5:53 AM)
Low17 °F (Apr 14, 5:53 AM)10% (Apr 14, 5:53 PM)29.62 "Hg (Apr 12, 5:53 PM)
Average49 °F44%29.98 "Hg
* Reported Apr 3 6:53 PM — Apr 18 6:53 PM, Pocatello, Weather by CustomWeather, © 2014

Note: Actual official high and low records may vary slightly from our data, if they occured in-between our weather recording intervals... More about our weather records

Advertising

Historic Weather Conditions — Data for Previous 24 hours

 ConditionsComfort  
Time TempWeatherWind HumidityBarometerVisibility
6:53 PM
Apr 18
57 °FSunny.24 mph25%29.91 "Hg10 mi
5:53 PM59 °FSunny.25 mph25%29.89 "Hg10 mi
4:53 PM59 °FPassing clouds.24 mph31%29.89 "Hg10 mi
3:53 PM58 °FPassing clouds.24 mph35%29.90 "Hg10 mi
2:53 PM56 °FScattered clouds.21 mph46%29.91 "Hg10 mi
1:53 PM53 °FBroken clouds.26 mph51%29.90 "Hg10 mi
12:53 PM51 °FPartly sunny.25 mph61%29.91 "Hg10 mi
11:53 AM50 °FBroken clouds.28 mph63%29.91 "Hg10 mi
10:53 AM46 °FBroken clouds.28 mph77%29.92 "Hg10 mi
9:53 AM45 °FMore clouds than sun.28 mph82%29.91 "Hg10 mi
8:53 AM45 °FBroken clouds.22 mph86%29.89 "Hg10 mi
7:53 AM44 °FLight rain. Mostly cloudy.20 mph89%29.86 "Hg10 mi
6:53 AM44 °FLight rain. Mostly cloudy.17 mph89%29.83 "Hg10 mi
5:53 AM48 °FMostly cloudy.23 mph77%29.80 "Hg10 mi
4:53 AM50 °FPassing clouds.25 mph74%29.77 "Hg10 mi
3:53 AM53 °FPassing clouds.30 mph66%29.75 "Hg10 mi
2:53 AM56 °FClear.23 mph53%29.71 "Hg10 mi
1:53 AM60 °FMostly cloudy.16 mph36%29.70 "Hg10 mi
1:00 AM60 °FOvercast.18 mph31%29.83 "Hg10 mi
11:53 PM
Apr 17
63 °FPassing clouds.25 mph23%29.64 "Hg10 mi
10:53 PM60 °FClear.23 mph25%29.68 "Hg10 mi
9:53 PM59 °FSunny.18 mph26%29.72 "Hg10 mi
8:53 PM59 °FPassing clouds.16 mph26%29.75 "Hg10 mi
Weather by CustomWeather, © 2014

See weather overview